Wind_Speed
28 27 25 24 24 22 21 21 20 19 19 18 15 14 16 20 22 18 15 13 10 11 17 18 17 18 16 14 13 13 14 15 16 16 19 21 21 21 22 23 24 24 25 27 27 27 28 29 29 29 29 28 28 27 27 26 27 27 27 26 26 23 19 16 10 9 17 25 26 28 30 30 31 33 33 32 33 32 31 32 30 29 36 40 38
27 26 25 24 23 22 21 20 19 19 18 15 15 18 22 22 18 13 11 10 11 18 22 20 19 19 16 15 17 16 16 16 17 17 19 21 21 20 20 22 22 22 23 25 25 25 26 27 27 27 28 28 27 27 26 27 26 26 26 25 24 24 22 19 15 12 16 23 28 29 31 31 30 33 32 29 30 31 31 32 31 28 32 39 39
27 26 25 24 23 22 21 20 19 19 17 16 20 23 22 17 12 10 12 15 19 23 22 19 19 18 16 16 17 17 18 18 18 18 19 20 20 20 20 21 22 22 22 23 23 24 24 24 24 24 26 27 27 26 26 26 26 25 24 24 23 23 24 22 19 16 16 20 26 28 30 30 30 31 31 27 27 29 30 31 31 27 29 37 40
27 27 26 25 23 23 22 20 20 19 17 19 24 23 16 12 12 14 19 22 23 22 20 18 18 17 17 17 16 16 17 18 19 19 19 19 19 19 20 21 22 21 21 20 20 21 22 22 21 22 24 25 25 25 25 25 25 24 23 23 23 23 24 24 23 20 19 20 24 27 28 28 28 30 33 30 27 28 28 29 31 28 26 34 40
28 27 26 26 24 23 23 22 22 19 18 22 24 18 13 14 17 20 22 23 22 20 19 17 17 17 18 18 17 17 18 19 20 20 20 20 19 19 19 21 21 21 20 20 19 19 19 19 19 19 21 23 23 23 24 23 23 24 23 23 23 23 25 26 25 25 23 22 24 28 30 30 29 30 33 32 29 29 29 28 30 29 26 31 39
28 27 27 26 25 25 24 23 21 18 19 24 22 15 14 18 21 22 21 21 21 19 17 16 16 18 19 19 19 19 19 19 19 19 19 19 18 18 19 20 20 20 19 19 19 18 18 17 16 17 18 20 21 21 22 22 22 23 23 23 22 24 26 27 27 27 27 26 26 28 31 32 31 30 32 31 28 29 31 29 30 31 27 29 38
29 28 28 27 26 26 24 22 20 19 22 24 19 15 17 21 22 21 20 20 20 18 17 17 17 18 20 20 19 19 19 19 19 19 19 18 18 18 18 19 19 18 16 17 17 17 16 15 14 14 15 17 19 19 20 21 21 22 22 22 22 23 24 25 26 27 27 27 28 29 29 29 29 29 30 30 27 28 31 28 28 32 30 27 34
29 29 28 27 26 25 23 21 21 22 23 22 17 17 21 22 21 21 19 18 18 17 17 17 18 20 21 20 20 19 18 19 19 19 19 18 17 17 17 17 17 16 15 15 16 17 15 14 14 13 12 13 15 17 18 18 19 21 22 22 21 22 23 24 24 25 25 26 27 28 29 29 29 29 30 31 29 29 31 28 25 29 28 24 28
29 29 27 26 26 24 23 23 22 23 22 18 16 20 23 22 21 20 18 17 18 18 18 19 21 22 22 21 20 18 17 17 17 16 16 16 16 16 16 15 15 15 14 15 16 17 16 15 15 14 13 12 12 13 14 15 16 18 20 21 21 22 23 24 24 24 24 24 26 28 29 30 31 31 31 32 29 28 30 29 25 27 27 23 25
29 28 26 25 25 24 23 23 23 23 20 16 19 23 24 23 22 20 18 18 19 20 21 22 22 23 22 21 20 18 17 15 14 13 13 14 15 15 15 14 14 15 16 16 17 18 19 18 17 16 15 14 12 11 12 13 14 15 18 21 21 22 24 24 24 24 24 23 24 26 27 28 30 30 29 29 28 27 27 27 25 26 27 24 24
28 27 26 25 25 24 23 23 24 21 17 18 23 26 25 23 22 20 19 20 22 23 23 23 23 23 22 21 19 17 16 14 12 12 12 12 13 14 14 15 16 17 18 18 18 18 19 19 18 16 16 16 16 14 13 13 15 16 18 19 19 20 24 25 25 26 26 24 24 26 26 26 29 30 29 29 29 28 26 25 24 25 26 22 19
27 26 26 25 25 25 23 23 23 18 15 20 26 27 26 24 22 21 21 22 24 24 23 24 23 22 21 20 18 16 15 12 12 12 12 12 13 15 17 18 19 20 20 19 18 18 18 19 18 18 18 17 17 17 15 14 14 15 17 19 18 19 23 26 27 28 28 27 26 26 26 27 29 30 30 29 29 28 27 27 26 24 24 21 19
26 26 26 25 24 24 24 24 22 16 16 23 28 27 26 24 22 22 22 23 24 24 24 24 24 22 22 21 20 19 17 15 13 14 15 16 17 19 21 22 22 22 21 20 19 17 17 17 17 18 17 16 16 16 16 15 14 15 17 20 19 18 20 24 27 28 30 30 29 28 28 29 30 30 30 29 28 29 28 27 27 25 23 22 22
26 26 26 25 25 25 25 25 20 16 20 27 28 26 26 25 23 22 22 23 25 25 25 25 24 23 22 22 23 22 21 20 18 19 20 20 22 23 24 24 25 24 23 22 20 19 18 17 17 17 17 16 15 15 15 15 15 15 17 20 20 18 17 20 23 26 28 30 31 30 31 33 33 33 33 32 30 28 27 26 25 23 21 21 22
27 26 26 26 26 26 27 25 20 18 24 29 28 27 27 25 24 22 22 24 25 25 26 25 25 24 23 23 23 22 22 20 19 19 21 22 22 23 24 25 26 25 25 24 22 22 20 20 19 19 18 17 16 15 15 16 16 16 17 20 21 19 16 16 19 22 23 26 29 29 31 32 34 35 36 36 34 30 28 28 26 22 21 23 25
27 27 26 26 26 27 28 25 20 22 28 30 28 28 27 25 24 23 22 24 25 25 25 25 25 25 23 22 22 22 20 18 17 17 19 20 22 23 24 25 25 25 24 23 23 22 21 20 20 20 19 18 16 15 15 16 17 17 19 21 22 22 18 14 15 18 19 22 24 26 27 28 30 33 35 36 37 35 34 35 33 29 27 26 26
26 26 25 25 26 27 27 24 22 26 30 30 28 28 27 25 25 23 23 24 25 25 24 24 24 24 23 22 21 21 20 18 17 16 16 17 20 22 24 24 25 24 23 22 22 21 20 20 19 18 18 18 16 14 14 16 18 20 21 21 21 21 19 16 14 14 16 18 20 21 23 24 26 28 31 34 35 37 38 36 32 31 28 23 20
24 23 23 26 27 27 24 23 24 29 31 29 29 28 27 26 25 23 24 25 25 25 24 24 23 22 21 20 19 20 20 19 18 17 15 15 17 20 22 23 24 23 23 22 21 21 21 20 18 17 17 16 15 14 14 16 19 20 20 20 20 19 19 18 16 14 14 16 18 19 20 22 23 25 28 31 33 36 38 35 31 31 27 21 19
26 26 26 28 28 26 23 23 27 30 30 29 29 28 28 27 25 24 24 24 24 24 24 24 22 21 20 18 17 18 20 20 19 18 16 15 15 17 21 23 23 22 22 22 22 21 21 20 18 17 16 15 14 14 15 16 18 19 19 19 20 19 18 18 17 16 14 15 16 17 18 20 21 22 24 27 29 33 35 34 34 34 28 23 22
28 28 27 27 27 24 24 26 29 31 30 30 29 29 28 27 26 25 24 24 24 24 23 24 23 20 19 17 16 15 17 20 21 19 17 15 13 15 19 21 22 22 21 21 21 21 20 20 18 17 16 15 14 14 14 15 16 17 18 19 21 21 18 17 17 17 16 16 15 16 17 18 19 20 21 23 26 28 31 32 34 35 32 28 26
28 27 27 26 25 24 25 29 30 30 30 30 29 29 28 27 27 26 25 24 23 23 23 23 23 21 19 17 16 15 15 19 22 21 17 15 13 12 15 19 21 21 21 20 20 19 19 19 18 17 16 16 15 15 15 15 15 16 17 19 21 20 18 17 16 17 18 18 17 16 16 17 18 18 18 20 22 24 26 29 30 32 33 31 28
28 27 27 26 25 25 28 31 31 31 31 30 30 29 28 28 27 26 26 24 23 23 23 23 23 22 20 18 17 16 16 18 22 21 18 16 12 10 12 17 20 21 21 19 17 16 15 15 16 16 15 15 15 16 15 15 15 15 16 17 18 18 18 18 16 15 16 18 19 18 18 18 18 18 17 17 17 19 21 25 27 28 30 30 29
27 27 26 26 27 29 32 33 33 32 32 31 31 30 29 29 28 26 26 25 23 23 23 23 24 23 21 20 18 17 17 17 19 21 20 17 12 10 14 19 20 20 19 17 14 12 11 11 13 15 14 13 14 15 15 15 14 13 13 13 14 14 15 17 17 17 16 16 17 18 19 20 20 19 19 17 15 14 15 18 21 23 25 27 27
26 26 27 28 30 32 34 34 34 33 33 32 32 31 31 29 28 27 25 25 25 25 24 25 25 25 23 22 20 19 18 18 19 20 19 15 12 14 18 20 18 16 15 13 11 10 10 10 11 13 14 13 13 14 15 15 13 12 12 13 13 13 13 15 17 18 18 17 17 17 18 19 21 21 21 20 17 13 11 11 14 17 20 22 23
26 28 30 32 33 34 34 34 35 34 34 33 32 32 31 30 29 28 26 26 27 27 26 26 27 27 25 24 23 21 20 20 20 19 17 15 16 19 19 17 15 14 13 11 10 10 10 11 12 13 14 13 13 14 15 15 14 12 13 13 14 14 14 14 15 17 18 19 18 18 18 18 19 20 19 19 19 17 14 11 10 11 13 16 19
28 30 32 33 34 34 34 34 34 35 34 33 32 32 32 31 30 29 27 27 27 28 27 27 27 28 27 26 24 23 22 21 20 20 19 19 20 19 17 15 14 13 11 10 9 10 12 12 13 13 13 13 13 14 14 14 14 13 13 13 14 15 15 15 15 16 17 18 18 18 18 16 16 17 17 18 19 21 20 17 14 11 10 12 14
30 31 32 33 33 34 34 34 34 35 34 32 32 32 31 31 30 29 28 28 27 26 26 27 28 29 28 27 26 25 24 23 23 23 22 21 20 17 15 15 14 12 9 9 10 11 12 13 12 12 12 13 14 14 14 13 13 13 13 13 13 15 15 15 15 15 16 16 16 16 16 15 15 16 18 19 20 20 20 20 19 16 13 13 13
32 32 32 32 32 32 34 35 35 34 33 32 32 32 32 32 30 29 29 29 28 27 28 28 30 31 31 30 28 26 25 24 25 24 21 19 18 16 15 15 13 10 10 11 12 12 12 12 12 11 11 12 13 13 13 12 11 11 12 12 12 13 14 14 15 15 15 15 14 14 14 15 15 16 17 18 19 18 18 19 20 19 17 16 15
31 31 31 32 31 31 33 34 35 34 32 31 32 32 32 31 28 27 28 28 27 29 30 30 32 33 34 33 31 28 26 24 23 21 18 17 16 15 15 15 12 10 11 13 13 12 12 12 12 12 11 12 12 12 11 10 10 10 10 10 10 11 12 12 13 14 14 13 13 14 13 14 14 15 16 17 18 17 16 17 17 17 18 18 17
31 30 31 31 31 32 33 34 34 33 32 32 31 29 29 29 27 27 27 27 25 25 26 27 30 32 32 31 29 27 26 24 21 18 16 15 14 14 15 15 13 11 12 13 13 12 12 13 12 11 11 11 11 11 10 8 8 8 8 8 8 9 10 11 11 12 12 11 12 13 13 13 14 14 15 16 17 16 16 16 15 15 15 17 17
30 30 30 31 32 34 35 34 33 32 32 32 31 29 27 26 27 28 28 27 25 23 23 24 26 28 27 26 25 22 21 20 18 16 15 14 13 14 15 14 13 12 12 12 13 13 12 12 12 11 10 10 10 9 8 7 6 6 6 7 7 7 8 9 9 9 9 9 10 10 11 12 13 14 14 14 14 15 15 15 15 15 14 14 15
31 29 29 31 33 35 35 34 33 32 32 31 31 30 27 25 23 24 26 28 27 25 24 24 24 24 22 21 21 20 20 19 17 15 15 13 12 13 15 14 13 12 11 11 13 13 12 12 11 10 10 10 9 8 6 5 4 4 4 6 7 6 6 6 6 6 7 8 8 8 9 10 10 11 12 12 12 13 13 14 15 15 14 13 13
33 32 32 33 34 34 34 34 33 33 32 31 30 30 29 26 22 20 21 25 28 29 28 26 24 23 21 19 18 17 18 19 18 16 15 14 12 14 16 15 12 11 10 10 13 14 13 12 11 10 9 9 8 7 5 4 3 3 3 6 7 6 5 4 4 3 4 5 6 7 7 8 8 8 9 10 10 10 11 12 13 14 14 14 14
35 36 36 35 35 33 33 33 33 33 32 31 30 29 28 27 25 23 22 22 25 28 29 29 27 25 23 21 19 17 17 19 19 17 16 15 15 17 18 15 12 10 9 9 12 14 14 12 11 10 9 8 7 6 5 4 3 2 3 4 6 6 5 4 3 2 2 2 3 5 5 5 5 6 7 8 9 9 9 10 10 11 12 13 13
33 36 37 37 36 34 33 33 33 32 31 31 30 30 28 27 27 26 26 26 26 26 27 29 28 26 24 22 20 18 17 19 19 18 17 17 18 19 18 15 12 10 9 9 10 12 13 12 10 9 8 8 7 6 5 4 4 2 2 3 4 5 5 4 3 2 1 1 0 1 3 3 3 4 5 7 8 8 9 9 9 9 11 11 11
32 34 35 35 35 34 33 33 32 32 32 32 31 30 29 28 28 27 27 28 28 27 26 26 26 25 23 21 19 18 18 19 19 18 18 18 20 20 19 16 13 11 10 9 10 11 11 11 9 9 8 8 7 6 5 4 4 3 2 1 2 2 2 2 2 3 3 2 2 2 1 1 2 2 3 5 7 7 8 9 8 8 9 9 9
32 33 33 33 33 33 33 32 32 32 32 32 30 30 29 28 28 27 27 28 28 28 28 27 26 24 23 21 20 20 20 19 19 19 19 20 21 21 19 16 14 11 10 10 11 11 11 11 9 9 9 8 7 7 6 5 5 4 3 2 1 1 1 1 2 3 4 2 2 1 3 2 0 1 1 3 5 6 7 7 7 7 8 8 8
32 33 33 33 33 32 32 32 31 31 31 31 31 30 30 29 28 28 28 28 28 29 28 28 27 26 25 24 23 22 21 20 20 20 21 21 21 21 18 15 13 11 10 11 12 12 11 11 10 9 9 8 7 7 7 7 7 6 5 5 4 3 2 2 2 3 4 3 3 2 3 4 2 1 1 1 3 4 4 5 6 6 6 7 7
30 32 33 33 33 32 32 32 31 31 32 32 31 31 30 30 29 28 28 28 28 29 29 28 28 27 26 26 25 24 23 23 23 23 23 22 21 20 17 14 12 11 10 12 14 14 12 12 11 10 9 9 8 8 8 8 8 7 6 6 6 6 5 4 3 4 4 4 3 2 2 4 3 2 2 2 3 2 2 3 4 5 6 6 6
28 29 31 32 32 32 32 32 32 32 32 32 32 31 31 31 30 29 29 29 28 29 29 29 28 27 26 27 27 27 26 26 25 24 24 24 22 20 17 14 12 11 9 11 14 14 13 13 13 12 11 10 10 9 9 9 9 9 8 7 7 7 7 7 6 6 5 5 5 4 3 4 4 3 3 3 4 4 3 3 3 4 5 6 5
27 28 29 31 32 31 31 32 32 33 33 32 32 32 31 31 30 30 29 29 29 29 29 29 28 27 27 27 27 26 26 25 25 25 25 25 23 20 17 15 13 11 10 12 15 15 13 13 14 13 12 12 12 11 11 11 11 11 10 10 9 10 9 9 9 8 7 7 7 7 6 6 5 5 5 4 5 6 5 4 3 4 5 6 5
28 28 28 30 30 30 31 32 32 32 32 31 31 31 31 30 30 29 29 29 29 29 29 28 27 26 27 26 25 25 24 23 23 24 24 24 23 21 18 15 14 12 11 12 15 16 14 14 15 14 14 14 14 14 13 13 13 13 13 12 12 12 12 12 11 10 10 10 9 9 9 8 8 8 7 6 6 6 6 6 5 5 6 5 5
27 27 28 30 30 30 31 32 30 30 30 31 30 30 30 29 29 29 29 29 28 28 28 28 27 27 26 25 24 24 23 22 22 22 23 23 23 23 20 17 15 14 13 13 14 15 16 15 15 15 15 15 15 15 15 14 14 14 14 15 15 15 15 15 14 13 12 12 11 11 10 10 10 11 11 10 9 8 8 9 9 8 8 7 7
26 26 26 27 27 28 29 30 29 29 30 30 29 29 28 28 28 28 28 27 27 27 27 26 26 26 26 25 25 25 24 23 22 21 21 22 23 23 22 19 18 18 17 15 14 15 17 16 16 16 16 16 16 16 15 15 15 15 15 16 17 17 16 16 16 15 15 14 13 13 13 12 12 13 13 13 12 12 11 11 11 11 10 10 9
29 28 27 25 25 26 27 29 29 29 29 29 29 28 28 28 28 28 27 27 26 25 24 23 24 25 26 26 26 25 24 23 21 21 20 21 21 22 22 20 18 19 20 19 17 17 18 18 17 17 18 18 17 17 17 17 17 17 17 16 17 18 18 17 17 16 16 16 16 16 16 15 15 15 15 15 15 16 15 15 14 13 12 12 12
30 30 29 28 27 27 28 28 28 29 29 30 30 29 28 28 28 28 27 26 25 24 23 22 21 23 25 26 26 25 23 22 21 21 21 22 21 21 21 20 17 17 19 20 20 20 20 20 19 19 20 20 20 19 19 18 18 18 18 18 18 18 18 18 17 17 17 18 18 18 18 18 18 17 17 16 16 17 17 17 16 16 15 15 15
29 29 27 25 26 27 28 28 28 29 30 30 30 28 28 28 28 28 28 28 26 25 23 21 20 21 23 24 25 24 23 22 22 22 23 23 23 22 22 21 19 18 18 19 20 21 22 22 22 21 21 21 22 22 21 21 20 19 19 19 19 19 19 19 19 20 20 20 21 21 21 22 22 21 21 20 19 19 19 19 19 19 19 18 19
28 28 25 23 23 24 25 25 26 28 29 30 28 27 26 27 27 27 28 28 28 27 25 23 21 21 22 23 23 23 23 23 23 23 23 24 23 22 22 22 22 22 22 20 19 20 21 23 23 23 23 23 24 24 24 23 22 22 21 21 21 21 20 20 20 21 21 22 22 23 23 24 24 25 25 24 24 24 23 23 23 23 23 22 22
27 27 25 24 22 22 23 25 26 26 25 24 24 24 25 25 26 25 25 26 28 28 27 25 23 22 22 22 23 23 24 25 25 25 25 24 23 22 22 22 22 23 24 24 23 22 23 23 24 25 25 25 25 25 25 25 24 24 23 23 22 22 22 22 21 21 21 22 23 24 25 26 26 27 27 27 28 28 28 27 28 28 27 26 26
23 23 23 22 21 21 21 22 22 20 17 15 17 21 23 23 22 21 21 23 26 27 26 25 24 22 21 20 20 21 22 24 24 24 24 23 22 21 21 20 20 20 22 24 24 24 25 25 26 27 27 27 27 27 27 27 27 26 25 24 23 23 22 23 23 22 21 22 23 24 25 26 28 29 29 30 30 30 31 31 31 31 31 30 30
18 18 19 19 19 17 15 15 16 16 14 12 14 18 20 21 20 19 18 20 23 25 25 25 24 22 21 20 19 19 19 21 22 23 23 23 23 22 21 20 20 20 21 22 24 25 26 27 27 28 29 29 29 29 29 29 28 28 27 26 24 23 23 22 23 23 23 24 25 25 26 27 28 29 30 31 32 33 33 33 34 34 34 34 33
Wind_Direction
160 160 160 160 158 157 156 155 153 152 152 152 149 147 145 142 138 135 138 146 149 150 148 139 129 128 127 120 120 122 114 109 110 105 95 87 81 78 75 76 80 80 76 73 72 72 71 68 63 58 55 54 53 54 56 58 59 59 57 52 47 44 39 37 32 5 9 13 11 10 11 12 13 14 13 13 15 20 22 24 26 22 19 23 27
160 159 158 159 159 157 156 154 153 153 151 149 147 143 140 139 140 144 154 160 156 151 148 141 136 136 130 119 115 115 114 115 114 105 97 91 86 83 78 75 77 80 78 74 72 74 74 71 66 62 60 59 58 58 58 59 61 60 57 53 48 44 39 35 31 19 9 11 13 12 12 13 12 11 13 12 11 15 20 22 26 24 19 21 25
160 160 159 160 159 157 156 154 153 153 148 144 144 142 140 141 144 152 156 152 147 147 147 145 143 141 134 125 118 112 111 114 114 107 100 97 94 91 84 77 76 79 79 75 74 75 75 73 69 65 65 64 63 63 62 62 62 61 57 54 50 45 41 37 33 26 14 11 14 13 10 11 11 9 11 12 11 14 18 20 24 25 19 19 23
159 159 159 157 157 157 156 155 155 153 147 147 147 145 142 140 141 146 148 145 143 143 144 145 146 143 136 130 122 114 112 113 113 109 104 105 104 100 92 82 78 79 78 76 75 76 77 74 70 68 68 68 66 65 65 64 62 61 58 55 51 47 42 40 37 31 24 17 15 14 11 10 11 9 10 11 12 14 17 19 22 25 19 17 21
159 159 158 157 157 158 156 157 156 152 152 154 151 145 137 137 143 147 147 145 145 145 143 142 142 141 137 131 124 117 115 116 114 110 108 108 107 104 97 88 83 81 79 76 74 76 78 77 73 72 71 69 68 67 65 64 62 59 57 54 52 49 45 41 37 34 31 23 15 13 14 12 11 12 12 11 9 10 15 19 21 23 20 15 18
160 160 160 159 160 160 159 160 159 159 161 158 152 142 137 142 147 150 149 148 147 148 146 141 140 139 135 131 126 121 120 121 119 116 114 111 109 105 101 95 90 86 83 79 74 74 78 81 79 77 74 71 70 69 67 64 60 57 54 53 53 51 47 43 39 35 32 27 19 16 16 15 12 12 13 14 13 10 11 13 17 20 20 15 16
163 163 163 163 163 163 163 163 162 165 164 158 152 145 144 147 149 149 150 150 149 149 146 141 140 139 136 132 128 125 125 124 122 122 121 118 116 110 106 103 99 95 90 84 78 75 78 82 83 81 79 76 73 70 68 64 59 55 52 52 55 54 51 46 42 38 34 30 26 21 20 20 18 14 13 16 20 18 14 12 11 13 15 17 15
165 165 165 165 165 165 165 162 159 160 160 159 156 151 149 150 151 150 151 150 147 147 145 142 140 138 136 133 130 129 129 127 126 126 125 123 121 118 114 111 108 104 99 90 81 79 82 85 85 83 82 82 79 74 70 65 60 55 52 52 57 58 55 50 46 42 38 34 31 28 25 25 23 19 18 19 19 17 16 16 12 8 10 15 16
166 166 166 165 165 165 163 160 159 161 162 162 157 152 151 151 150 150 151 148 145 143 142 141 139 136 134 132 131 131 131 129 131 133 131 128 125 123 122 119 116 113 108 98 86 82 86 88 84 80 77 79 81 77 70 64 58 55 51 53 60 63 59 55 50 45 42 38 32 29 28 27 23 20 20 21 19 16 16 17 15 10 10 14 17
166 165 165 164 163 162 159 161 166 168 166 163 156 152 152 151 149 148 147 146 144 143 140 139 137 135 134 132 131 131 129 130 136 139 139 135 131 128 126 120 116 116 112 105 94 85 87 90 88 83 77 75 77 78 76 69 61 56 53 54 62 67 63 60 56 50 45 41 34 30 30 27 24 23 23 22 23 21 19 19 16 12 12 13 12
165 163 162 161 160 159 158 164 171 170 165 160 156 153 152 150 148 146 144 143 143 142 140 137 135 135 134 132 130 128 127 132 141 144 140 138 135 131 126 120 116 115 112 108 99 89 87 90 91 89 82 78 78 80 81 75 66 61 57 55 61 69 66 63 62 57 53 48 40 37 35 30 25 26 25 24 25 25 24 23 21 17 15 13 7
162 160 159 159 159 159 161 169 174 170 161 158 155 153 152 149 147 145 143 144 144 142 140 137 134 134 134 130 126 124 126 134 144 146 141 137 133 127 122 118 114 111 109 106 102 95 90 89 89 88 86 85 85 81 78 74 68 66 63 59 64 73 70 65 63 61 59 56 48 42 39 34 30 28 26 25 25 26 27 27 25 22 19 19 14
159 158 157 159 159 159 165 174 177 172 161 157 154 153 152 149 147 146 145 146 146 143 140 137 134 134 133 127 120 114 115 122 130 133 130 128 125 120 115 112 108 105 103 102 100 97 92 90 87 86 87 90 91 85 80 77 76 75 72 67 71 80 76 67 64 62 59 58 56 51 46 41 38 34 32 31 29 27 27 26 25 23 22 23 20
158 157 157 160 159 161 169 175 176 171 162 156 153 153 152 149 148 148 148 149 148 144 141 139 135 134 132 128 121 114 111 112 116 119 120 120 119 115 110 107 104 101 99 98 96 94 92 90 87 85 87 91 92 87 79 78 84 85 77 71 73 83 84 72 65 62 59 58 59 56 52 48 45 43 41 40 39 34 30 27 25 23 24 28 25
158 159 160 162 161 165 173 179 177 170 161 156 154 153 152 150 150 150 152 153 151 147 144 142 138 135 133 132 130 124 117 114 113 114 117 117 116 112 109 106 104 101 98 96 94 91 90 89 88 86 86 87 87 84 76 76 88 91 81 75 75 80 87 79 67 62 59 58 58 56 52 49 47 46 44 44 45 43 41 39 36 32 32 34 29
159 163 165 167 168 173 179 183 179 167 160 156 155 153 153 152 152 153 153 153 152 149 147 146 143 139 136 136 136 133 130 126 121 117 117 117 115 113 110 108 106 102 99 96 94 90 88 87 86 84 84 83 82 81 75 77 90 94 85 81 80 79 84 85 72 63 61 58 56 53 50 46 45 44 44 44 45 45 46 45 41 37 36 33 27
161 166 167 170 174 179 183 184 176 164 160 158 156 155 155 154 155 156 155 154 154 152 150 148 147 144 141 139 139 140 141 139 135 128 123 120 118 115 112 111 108 104 101 98 95 91 88 85 84 82 81 79 80 81 77 79 92 96 89 85 83 79 80 85 79 68 63 59 54 51 47 43 40 40 41 43 43 43 45 44 40 37 37 32 22
162 168 171 175 179 183 187 185 172 163 161 160 158 157 157 157 158 160 159 156 155 154 152 149 147 146 144 141 142 147 150 150 146 140 130 123 120 119 117 114 110 107 104 100 96 93 89 86 83 81 79 76 78 79 77 81 91 95 92 87 81 74 75 83 85 78 69 61 55 50 47 42 38 36 38 41 42 43 45 47 45 42 41 36 23
170 175 180 183 184 186 189 182 171 165 164 163 161 160 159 158 160 163 162 159 156 156 155 152 149 147 145 141 141 151 157 158 155 150 140 130 124 123 123 119 114 111 107 103 98 93 90 87 84 81 78 77 78 78 77 82 89 93 94 90 79 72 75 82 82 78 74 67 60 54 49 45 40 36 36 39 42 44 46 48 47 46 46 41 32
177 178 182 186 186 188 188 179 171 168 166 165 163 162 161 160 161 162 162 160 158 157 158 156 152 148 146 141 138 146 158 164 162 157 150 141 132 129 129 125 120 116 111 106 100 94 90 88 86 83 79 76 78 80 80 82 86 91 95 91 82 79 85 88 81 74 71 68 64 60 55 49 43 38 36 39 43 45 46 47 47 47 48 47 42
177 177 182 187 188 189 186 178 173 171 169 166 164 163 163 164 164 162 161 160 158 156 157 157 154 149 146 143 137 136 149 163 166 164 158 152 145 138 135 131 127 121 115 109 103 96 90 87 87 87 83 78 77 81 84 86 88 90 92 91 88 87 91 92 86 78 71 66 63 61 58 54 48 40 35 38 43 44 45 47 48 49 49 49 47
177 180 184 188 188 186 181 178 175 172 170 168 165 163 165 166 165 164 163 161 158 156 156 156 153 149 146 144 140 135 139 153 164 167 164 159 153 145 140 138 134 125 118 112 106 100 94 89 89 90 89 84 79 79 82 86 91 93 92 94 95 94 92 90 87 83 76 68 62 59 55 51 46 40 34 33 36 39 43 47 48 50 51 51 51
178 183 186 186 185 182 178 176 174 171 170 169 166 164 165 166 166 167 166 163 159 157 157 156 153 149 146 144 142 140 140 148 159 164 164 160 155 144 137 136 131 124 118 114 108 103 100 98 99 98 95 92 86 81 78 80 88 95 96 96 98 98 94 89 84 82 80 73 64 56 50 45 43 42 38 33 27 26 33 41 45 48 50 51 52
181 184 184 182 180 178 176 173 172 170 169 169 167 166 166 167 168 170 169 166 162 159 157 156 154 149 147 145 144 144 144 148 154 160 161 159 150 139 134 132 129 125 122 117 110 103 102 109 114 110 103 97 93 87 79 76 82 92 96 96 97 97 94 88 83 80 77 73 66 59 52 47 45 45 44 41 36 28 22 25 34 42 46 45 46
182 180 178 176 175 173 171 169 170 170 170 171 170 168 168 169 169 169 170 167 162 158 156 156 154 150 149 148 146 147 148 149 151 154 157 155 146 140 138 136 134 132 127 120 112 104 106 116 122 118 111 103 98 94 86 78 79 89 95 95 93 92 90 87 84 79 74 70 67 63 59 55 52 51 49 47 47 47 44 35 27 33 37 34 35
178 174 172 171 171 170 167 167 169 170 171 174 174 172 172 171 170 170 170 167 162 158 156 155 153 150 150 150 149 150 151 152 152 152 152 151 148 146 146 144 140 136 130 125 120 113 115 123 125 120 115 108 101 98 94 86 81 84 93 95 92 89 88 85 82 79 74 71 69 65 62 60 59 57 55 54 55 57 57 52 45 40 32 23 26
173 170 170 169 168 168 166 166 167 169 172 175 175 174 175 175 172 171 170 167 162 159 158 156 153 150 149 149 150 151 151 153 153 152 152 152 153 152 152 148 144 138 132 131 133 129 125 126 127 124 120 115 107 102 100 96 88 84 89 95 93 89 86 82 79 78 75 72 71 67 63 64 64 61 60 59 59 60 59 55 53 53 47 38 34
169 169 169 167 166 167 166 165 167 169 172 175 174 174 176 177 177 177 175 171 167 164 162 159 156 153 151 149 149 150 152 155 156 155 156 158 158 159 157 153 148 141 137 140 142 142 138 134 133 132 128 123 115 108 104 103 99 92 89 93 97 95 91 86 82 78 75 73 72 69 65 63 62 61 62 60 58 58 57 55 56 59 59 55 49
167 166 166 166 166 166 165 166 169 170 171 172 174 175 178 181 182 182 180 179 175 172 169 164 160 157 155 154 154 156 160 163 162 162 164 166 165 162 159 156 152 145 145 147 147 147 146 142 137 134 131 125 119 114 111 109 109 105 97 92 95 99 97 90 83 78 75 73 71 68 65 62 59 59 61 59 57 56 55 53 55 57 56 53 48
165 164 165 166 166 165 165 167 171 172 171 171 172 173 177 182 184 183 182 183 181 178 176 171 167 164 162 161 162 165 166 166 167 168 170 170 167 163 161 160 157 151 150 153 153 151 149 144 140 136 132 127 121 120 121 119 115 115 113 103 97 98 98 92 84 79 77 76 73 69 68 66 63 59 58 57 56 56 55 53 51 48 45 41 37
163 164 166 166 166 167 168 170 171 171 171 172 173 173 175 179 184 187 187 186 185 184 182 179 176 174 170 166 167 170 171 172 173 174 172 169 165 164 165 164 161 159 159 162 163 159 152 146 144 141 136 131 126 124 128 129 120 115 122 126 116 106 102 97 89 83 80 78 77 74 71 69 65 60 57 56 55 54 53 51 48 44 39 33 30
165 166 168 168 168 169 170 171 171 170 171 173 175 176 177 178 183 191 195 196 194 191 187 183 182 182 180 175 173 176 180 182 183 180 177 176 173 171 171 170 168 170 173 175 175 170 160 152 150 149 145 137 132 132 136 136 125 110 120 135 135 124 113 106 96 88 82 78 77 77 75 71 67 60 54 53 54 53 50 48 46 44 41 36 32
168 168 169 169 170 172 173 172 172 173 173 175 177 179 179 179 178 181 187 193 195 196 194 191 187 187 189 189 189 189 188 188 189 186 185 188 187 179 175 176 177 178 181 185 184 179 171 163 157 155 152 145 140 145 150 145 134 109 107 132 142 138 128 119 114 107 90 76 72 75 76 74 69 60 51 47 48 48 46 44 43 43 40 38 36
172 173 173 172 173 175 176 175 175 175 176 177 178 179 181 181 178 172 168 171 179 187 193 194 193 193 194 194 196 197 194 192 192 189 188 190 188 179 177 180 183 182 180 181 183 182 178 173 166 162 159 154 153 159 164 165 158 123 101 123 143 149 149 151 148 139 114 88 76 71 71 72 69 57 46 43 44 44 41 38 37 37 36 34 34
174 175 176 176 177 178 178 178 178 177 177 179 180 179 179 178 176 172 168 165 166 171 180 186 189 192 192 191 192 195 194 191 188 186 186 186 182 178 180 184 187 186 184 181 181 183 183 179 176 173 170 166 167 172 174 179 184 165 114 116 136 152 166 181 192 198 201 212 204 60 59 64 64 50 37 37 41 43 40 36 31 31 32 31 30
176 175 176 177 179 180 180 180 180 180 180 180 180 179 178 176 174 172 169 167 166 165 168 174 179 183 185 186 188 189 188 185 183 181 183 184 182 182 185 188 190 192 193 191 189 190 190 188 187 185 181 177 178 184 187 190 196 194 171 127 118 142 167 191 226 245 257 272 270 258 251 60 51 45 41 39 41 42 41 38 36 34 32 30 30
178 176 176 178 181 181 181 182 183 183 183 182 181 179 178 176 175 173 170 168 168 167 167 169 172 174 176 178 181 182 182 180 180 182 185 187 187 187 188 191 195 201 204 201 196 192 191 194 196 196 193 189 189 194 199 206 212 214 217 222 226 232 264 319 309 271 260 282 331 284 227 214 19 22 40 46 41 37 34 33 34 35 33 31 29
180 179 179 180 181 182 181 182 183 184 184 184 183 182 179 177 178 177 175 173 173 172 172 173 175 176 177 177 179 180 180 180 183 187 190 189 189 189 191 196 202 208 213 211 204 199 199 203 206 206 205 205 206 209 214 221 226 231 236 237 238 241 254 291 319 291 263 274 338 340 225 211 222 308 340 18 26 25 24 22 22 24 24 23 22
181 183 184 184 183 182 183 183 185 185 185 185 185 185 183 182 182 182 181 180 179 179 179 180 182 185 184 181 180 181 183 185 189 192 192 190 189 191 195 201 205 208 211 211 207 205 208 212 213 212 212 212 214 218 224 228 232 238 245 245 242 243 245 258 285 291 273 273 302 323 227 213 226 258 282 306 328 343 353 356 359 3 3 2 5
180 183 185 185 184 184 185 186 187 187 187 187 187 187 188 189 189 188 187 187 187 186 187 188 190 191 190 187 186 186 188 191 194 194 192 190 191 195 200 205 208 210 213 213 209 209 214 219 219 219 220 220 221 225 229 230 233 239 247 250 249 250 251 254 262 273 278 277 281 279 236 218 228 247 262 284 304 312 310 312 325 339 344 342 339
183 183 185 185 185 185 186 188 190 191 191 191 191 191 193 195 195 194 194 195 194 194 195 197 198 197 194 193 193 193 194 195 196 196 195 194 195 200 204 208 211 215 219 216 212 213 221 226 225 225 229 230 230 231 233 234 235 241 249 254 254 254 257 258 259 263 271 276 280 279 263 243 243 253 261 276 297 302 297 295 301 313 323 329 328
184 185 187 188 186 185 187 190 193 193 192 194 196 198 200 201 200 199 200 201 201 201 201 203 203 199 196 196 198 199 201 201 200 200 200 200 202 205 208 211 216 220 223 222 219 221 227 230 228 230 233 233 232 233 235 238 241 246 251 254 253 252 255 259 261 263 268 272 280 285 278 263 254 257 262 270 284 293 287 280 284 297 305 310 320
187 188 190 190 188 188 191 193 194 193 195 199 203 205 205 205 205 204 205 204 204 205 206 206 203 199 197 199 200 202 205 207 207 207 208 208 209 210 211 215 220 223 227 230 229 229 233 235 235 236 238 237 236 238 240 243 248 252 254 255 252 252 253 255 256 259 263 268 276 283 281 269 260 261 266 268 270 275 278 275 276 285 291 290 295
193 191 193 194 192 193 195 197 197 197 199 203 206 207 208 208 207 206 206 206 207 208 209 208 205 202 200 201 203 206 210 212 213 215 216 216 216 215 216 222 230 233 233 234 233 234 239 242 241 242 243 242 241 242 245 250 255 258 259 257 253 251 252 253 254 258 261 265 269 274 275 272 269 267 268 268 265 267 271 274 275 279 281 283 285
194 193 193 194 195 198 200 202 202 201 201 203 205 206 206 206 205 205 206 207 208 209 210 211 211 209 207 205 206 210 213 215 216 218 218 217 218 219 221 227 236 239 238 236 234 236 240 242 241 243 245 244 244 246 251 257 261 262 262 259 255 254 256 258 260 265 266 265 266 268 270 272 273 273 272 269 267 266 268 271 274 275 275 278 283
195 197 196 195 196 199 201 202 202 201 201 202 204 205 204 203 204 206 208 209 211 212 212 214 215 216 214 211 211 213 215 217 218 217 215 214 219 224 227 230 236 241 242 239 238 239 241 242 244 247 248 248 248 250 254 259 262 263 262 260 259 261 263 263 262 262 262 262 265 268 270 271 273 275 275 273 269 268 268 269 271 273 275 278 282
195 198 197 196 196 196 197 197 199 200 202 203 204 206 205 204 205 208 211 213 215 216 215 216 218 219 218 216 215 215 217 219 219 218 218 222 230 236 238 237 238 241 243 242 240 241 243 244 246 250 252 251 251 253 256 259 261 263 264 263 262 264 267 267 264 261 260 259 262 265 268 270 271 272 274 273 270 268 268 269 270 272 274 277 279
196 197 197 196 191 187 186 187 191 196 200 202 204 207 208 207 208 211 214 216 218 218 218 218 219 220 222 223 223 224 226 227 228 227 228 233 240 245 248 247 246 245 245 244 243 244 245 246 248 251 253 253 253 255 257 260 262 264 265 265 265 266 267 267 266 265 262 260 260 261 263 267 269 270 271 271 270 268 267 268 269 271 272 273 276
191 190 190 188 184 181 182 184 186 191 196 199 204 208 209 209 211 214 217 219 219 218 219 221 222 223 226 230 233 235 237 238 237 236 237 241 247 252 256 257 255 251 247 247 247 248 249 249 250 251 253 256 257 257 259 261 263 265 267 268 269 270 269 267 267 267 266 264 263 263 263 264 266 267 268 269 269 268 267 267 268 270 270 270 272
181 181 182 181 180 181 184 185 187 191 195 202 210 211 208 208 211 215 218 220 218 217 220 223 225 227 229 233 236 239 240 241 241 241 241 245 250 254 257 258 256 250 246 246 247 249 251 252 253 254 256 258 259 260 261 262 263 265 268 270 271 272 272 270 268 268 267 265 264 263 262 263 263 264 265 267 267 266 266 266 267 268 268 268 270
176 182 184 183 181 180 181 186 194 200 207 217 224 220 214 213 214 216 217 219 219 220 223 227 229 233 238 241 242 243 243 243 243 243 244 246 250 254 256 256 254 250 249 250 252 254 256 257 258 258 259 260 261 262 263 264 265 266 268 270 272 273 272 272 270 268 265 264 263 262 262 262 261 262 263 265 266 266 266 266 267 267 266 267 268
Height
806 808 811 814 815 817 818 819 820 821 821 822 823 824 825 827 828 830 831 832 834 835 836 837 838 838 839 839 839 839 839 839 838 838 838 839 839 840 841 841 840 840 839 838 837 836 836 836 836 836 835 834 833 832 830 829 828 827 826 824 823 823 821 820 819 817 813 810 807 803 800 796 793 790 787 783 780 778 775 773 770 768 766 763 760
806 808 811 813 815 816 818 819 820 821 821 822 823 825 826 827 829 830 831 832 833 834 836 837 838 839 839 840 839 839 839 839 839 839 839 840 841 842 843 842 841 841 840 839 838 838 838 838 838 838 837 836 835 834 833 831 830 829 828 827 826 824 823 821 819 817 814 810 807 804 800 796 794 791 788 786 783 780 777 774 772 770 768 765 762
806 808 810 813 815 816 818 819 820 821 822 823 824 825 827 828 829 830 831 832 833 835 836 837 838 839 839 840 839 839 839 839 840 840 840 841 842 843 844 843 842 842 841 840 841 840 840 840 840 840 839 838 837 836 835 833 832 831 830 829 828 826 824 822 820 818 816 812 808 805 801 798 795 793 790 788 786 782 779 777 774 772 770 768 765
806 808 810 813 815 816 817 819 820 821 822 823 824 826 827 828 829 830 831 832 834 835 836 838 839 839 839 840 840 840 840 840 841 842 842 843 844 845 845 844 843 843 842 842 842 842 842 842 842 842 841 840 839 838 836 835 834 833 832 831 829 828 826 824 821 819 817 813 810 807 804 801 798 795 791 788 786 784 782 779 776 774 773 770 767
806 808 810 812 815 816 817 819 820 821 822 823 824 826 827 827 828 830 831 832 834 835 837 838 839 839 840 840 840 840 841 841 842 843 844 844 845 846 845 845 844 844 844 844 844 844 843 844 844 844 843 842 840 839 838 837 836 835 834 832 831 829 827 825 823 820 818 815 812 809 806 802 799 796 792 789 786 784 783 781 779 776 775 772 770
806 808 810 812 815 816 817 818 819 821 822 823 824 826 826 827 829 830 831 833 834 836 837 838 839 840 840 840 840 841 842 843 843 844 845 846 846 846 846 845 845 845 845 846 845 845 845 845 846 845 845 843 842 841 840 839 838 836 835 834 832 831 828 826 824 822 819 817 814 811 807 804 801 797 795 792 789 786 783 781 779 778 776 774 771
806 808 810 812 814 816 817 818 819 820 822 823 824 825 826 828 829 830 832 833 834 836 837 838 839 840 840 841 841 842 842 844 844 845 846 847 847 847 846 846 846 846 847 847 847 846 846 847 847 846 846 845 843 842 841 840 839 838 837 835 834 832 830 828 826 824 821 819 817 814 811 808 805 801 798 796 793 790 787 783 780 778 777 776 774
805 807 810 812 814 815 816 818 819 821 822 823 824 825 827 828 829 831 832 833 835 836 837 838 839 840 841 841 842 843 844 845 846 846 847 847 847 847 847 847 847 847 848 848 848 848 847 848 848 847 846 845 845 844 843 842 841 839 838 837 836 834 832 830 828 826 824 821 819 817 814 810 807 804 801 796 793 791 789 787 785 782 781 780 778
805 807 810 812 814 815 817 819 820 822 823 823 824 826 827 828 830 831 832 833 835 836 837 838 839 840 841 842 843 844 845 846 847 848 848 848 848 848 848 848 848 848 849 849 849 849 849 849 848 848 847 846 846 845 844 843 842 841 839 838 837 835 833 832 830 828 826 823 821 819 815 811 808 805 802 799 797 796 794 792 789 787 784 782 780
804 807 809 811 814 816 817 819 821 822 823 824 825 826 827 829 830 831 833 834 835 836 837 838 839 840 841 842 844 845 846 848 848 849 848 848 848 848 848 849 849 849 849 850 850 850 850 850 849 849 848 847 846 846 845 844 843 842 841 839 838 837 835 833 831 829 828 825 824 821 817 814 813 810 807 806 805 802 799 795 792 790 786 782 780
804 806 809 811 814 816 818 820 821 823 824 825 826 826 828 829 830 832 833 834 835 837 838 839 840 841 842 843 845 846 848 849 849 849 849 849 849 849 850 850 850 850 850 851 851 852 852 851 850 849 848 848 847 847 846 846 844 843 842 841 840 838 836 834 833 831 830 828 827 824 821 820 818 815 813 811 808 805 802 799 796 793 789 786 784
804 806 808 811 813 816 818 820 822 823 825 825 826 827 828 829 831 832 833 834 836 837 839 840 841 842 843 844 846 847 848 849 850 850 850 850 850 850 851 851 851 851 852 852 853 853 853 852 851 850 849 849 849 848 847 847 846 844 844 842 841 839 838 836 835 833 832 831 829 827 825 824 821 818 816 813 811 808 805 802 799 797 795 793 790
804 806 808 811 813 815 818 820 822 824 825 826 827 828 829 830 831 832 834 835 837 838 840 841 842 843 844 845 847 848 849 850 850 850 850 851 852 852 852 852 852 853 853 853 854 854 854 853 852 851 850 850 850 849 848 847 847 846 845 844 842 841 840 838 837 836 834 833 831 830 829 827 824 822 820 817 814 811 808 805 803 801 799 797 795
804 806 809 811 813 815 818 820 822 824 825 827 828 828 829 831 832 833 835 837 838 839 841 842 843 844 845 846 848 849 850 851 852 851 852 853 853 853 853 853 854 854 855 855 855 855 854 854 853 852 852 851 851 850 849 848 847 847 846 845 844 842 841 840 839 838 837 835 833 832 832 830 828 826 824 821 817 814 812 809 807 805 803 801 800
804 807 809 811 813 815 817 820 822 823 825 826 827 829 830 831 833 834 836 838 839 840 842 843 844 845 846 847 848 850 851 853 853 853 854 855 855 854 854 855 855 856 856 856 856 856 856 855 854 853 853 852 852 851 850 849 848 848 847 846 845 844 843 842 841 840 839 837 836 835 834 833 831 829 827 824 821 818 816 814 811 808 806 803 801
803 805 808 810 812 815 817 819 821 822 824 825 827 829 830 832 834 835 837 839 840 841 843 844 845 846 847 848 849 850 852 853 855 855 856 856 856 856 856 856 856 857 857 857 858 857 857 856 855 855 854 854 853 852 851 850 849 849 848 847 846 845 845 844 843 842 841 839 838 837 836 835 833 831 829 826 824 822 819 816 812 809 806 803 801
801 804 807 810 812 815 817 819 820 822 823 825 827 829 830 832 834 836 838 839 841 842 843 845 846 847 848 849 850 851 853 854 856 856 857 857 857 857 857 858 858 858 858 859 859 858 858 857 857 856 856 855 854 853 852 851 850 850 849 849 848 847 846 846 845 844 843 842 840 839 838 837 835 833 831 828 826 824 820 815 814 812 809 807 805
800 804 808 811 813 815 817 819 820 821 823 824 826 829 831 833 835 836 838 840 841 842 843 845 846 847 848 849 850 851 853 855 856 857 858 858 859 858 859 859 859 859 859 860 860 859 859 859 858 858 857 856 855 854 853 852 851 851 850 850 849 849 848 848 847 846 845 843 842 841 840 838 837 835 833 830 828 825 821 818 818 816 813 811 810
797 802 807 810 812 815 817 819 820 821 823 824 827 829 831 833 835 837 839 840 841 843 844 845 846 848 849 850 851 852 853 855 857 858 858 859 860 860 860 860 860 861 860 860 861 860 860 860 859 859 859 857 856 855 854 854 853 852 852 851 851 850 850 849 848 847 846 845 844 843 841 840 838 836 835 832 830 827 825 823 821 818 816 815 814
794 800 806 811 813 815 817 819 820 821 823 825 827 830 831 834 836 838 839 841 842 843 844 845 846 848 849 850 851 853 854 855 857 858 859 860 860 861 861 861 861 861 861 861 861 861 861 861 861 861 860 859 858 856 855 855 854 854 853 852 852 851 851 850 850 849 847 846 845 844 842 841 840 838 836 834 832 830 828 826 824 822 820 818 816
794 799 805 810 813 815 816 818 820 821 823 825 828 830 832 834 836 838 840 841 842 843 844 845 846 848 849 850 852 853 854 855 857 858 860 861 861 861 862 862 862 862 862 862 862 862 862 862 862 862 861 860 859 858 856 856 856 855 855 854 853 852 852 851 851 850 849 848 846 845 844 842 841 839 838 836 834 833 831 829 827 825 823 821 819
795 800 805 809 813 814 816 818 819 821 823 826 828 831 833 835 837 838 840 841 841 843 844 845 846 848 849 851 852 853 854 856 857 859 860 861 862 862 862 862 863 862 862 862 863 863 863 863 863 863 862 861 860 859 857 857 857 857 856 855 854 853 853 852 851 851 850 849 848 846 845 844 842 841 839 838 836 835 833 832 830 828 826 825 823
795 800 805 808 811 813 815 816 818 820 823 826 828 831 834 835 837 838 839 840 841 842 843 845 846 847 848 850 852 854 855 856 858 859 860 861 862 863 863 863 864 863 863 863 864 864 864 864 864 864 863 862 861 860 858 858 858 858 857 857 855 854 854 853 852 852 851 850 849 847 846 845 843 842 841 839 838 837 836 834 833 831 829 828 826
796 800 804 807 809 811 813 815 817 820 823 826 828 831 833 835 837 838 839 839 840 841 842 844 845 846 848 850 852 854 855 857 858 860 861 861 862 863 863 863 864 864 864 864 864 864 864 864 864 864 864 863 862 860 859 859 859 859 858 857 856 855 855 854 853 853 852 851 850 848 847 846 845 843 842 841 839 838 837 836 835 833 832 831 829
796 800 803 805 808 810 812 814 817 820 822 825 828 830 833 834 836 837 838 839 840 840 841 843 844 845 847 849 851 853 855 857 859 860 861 862 863 863 864 864 864 864 864 864 864 865 865 865 865 865 864 864 862 861 860 861 860 860 859 858 857 856 856 855 854 854 853 852 851 850 849 848 846 845 844 843 841 840 838 837 836 835 834 833 831
797 800 802 805 807 809 812 814 817 819 822 825 827 829 832 833 835 837 838 839 839 840 841 842 843 844 846 849 851 853 855 856 858 860 861 862 862 863 863 863 864 864 864 864 865 865 865 865 865 865 865 864 863 862 861 862 862 861 860 859 858 858 857 856 855 854 854 853 852 851 850 849 848 847 846 844 843 841 840 838 837 836 835 834 833
797 800 803 805 807 809 811 814 817 820 822 825 827 829 831 833 835 836 837 838 839 840 841 842 842 843 845 848 850 852 854 856 858 859 860 861 862 862 863 863 863 864 864 865 865 865 866 866 865 865 865 864 863 862 862 863 862 862 861 860 860 859 858 858 857 856 855 854 853 852 851 850 849 848 847 845 844 843 842 840 839 837 836 835 834
796 800 803 806 808 810 812 814 817 820 822 824 826 828 830 832 834 835 836 836 837 838 840 841 841 842 844 846 849 852 854 856 857 858 860 860 861 862 862 863 863 864 864 865 865 866 866 866 866 866 865 864 863 863 863 863 863 863 862 862 861 860 859 859 858 857 856 855 854 853 852 851 850 849 848 847 845 844 843 842 840 839 838 836 835
797 800 803 806 808 810 812 814 816 819 821 824 826 828 830 831 832 834 836 836 837 837 838 839 840 841 842 844 847 850 853 855 857 858 859 860 861 861 861 862 863 864 864 865 865 866 866 866 866 865 865 864 863 863 863 864 864 863 863 862 862 861 860 860 859 858 857 856 855 854 853 852 851 850 849 848 847 846 844 843 842 841 839 838 836
798 801 803 805 807 809 812 814 816 818 820 822 825 827 829 831 832 834 835 837 838 839 839 840 841 842 843 845 846 849 851 854 856 858 859 859 860 861 861 862 863 863 864 865 865 866 866 865 865 865 865 864 863 863 864 864 864 864 863 863 862 862 861 860 860 859 858 857 856 855 854 853 852 851 850 849 848 847 846 844 843 842 840 839 837
797 800 802 804 806 809 811 813 815 817 819 821 824 826 828 830 832 833 835 836 838 839 841 841 842 843 844 846 848 850 853 854 856 857 858 859 859 860 861 861 862 863 864 864 865 865 865 865 865 865 864 864 863 863 864 864 864 864 863 863 862 862 862 861 861 860 859 858 857 856 855 854 853 852 851 850 849 848 847 845 844 843 841 840 839
796 799 801 804 806 808 810 812 814 817 819 821 823 825 826 828 830 832 834 836 837 839 841 841 842 844 845 846 847 850 852 853 855 856 856 858 859 859 860 861 862 863 863 864 865 865 864 864 864 864 864 863 863 863 864 864 864 864 863 863 862 862 862 862 861 861 860 859 858 857 856 855 854 853 852 851 850 849 848 846 845 844 843 842 840
794 797 800 803 806 808 809 811 813 815 817 820 821 823 825 827 829 830 832 834 836 838 840 841 842 843 845 846 847 849 850 852 853 854 855 857 857 858 859 860 861 862 863 863 864 864 864 863 863 863 863 863 863 863 864 864 864 864 863 863 862 862 862 862 862 861 860 859 858 857 856 856 855 854 853 852 851 850 848 847 846 845 844 843 842
792 795 798 801 804 806 808 810 812 815 817 819 821 822 824 826 827 829 830 832 834 837 839 840 842 843 844 845 847 848 849 850 852 853 854 855 856 857 858 859 860 861 862 862 863 863 863 863 863 863 862 862 862 863 864 864 864 864 863 862 862 862 862 862 862 861 860 860 859 858 857 856 855 854 853 852 851 850 849 848 847 846 845 844 842
793 794 796 799 802 805 807 810 812 814 816 818 820 822 824 826 827 828 829 830 832 834 837 839 841 842 843 844 846 847 848 849 850 852 853 854 855 856 857 858 859 860 861 861 861 861 861 862 862 862 862 861 861 862 863 863 863 863 863 862 862 862 862 862 862 861 860 860 859 858 857 856 855 855 854 853 852 851 850 849 848 846 845 844 843
793 794 796 799 801 804 806 809 811 814 816 818 820 822 824 825 827 828 829 830 831 833 836 838 840 842 843 844 845 846 847 848 849 851 852 853 854 855 856 857 858 859 859 860 860 860 860 861 861 861 861 861 861 861 862 862 863 863 863 862 862 862 862 861 861 861 860 859 859 858 857 856 855 855 854 853 852 851 850 849 848 847 846 845 844
791 793 795 798 800 803 805 808 811 814 816 818 820 822 824 825 827 828 829 830 832 833 835 837 839 840 841 843 844 845 846 847 849 850 851 852 853 853 854 855 856 857 858 858 859 859 859 860 860 860 860 860 860 861 861 862 862 862 862 862 861 861 861 861 860 860 860 859 858 857 857 856 855 854 854 853 852 851 850 849 848 847 846 845 844
790 791 794 797 800 802 805 808 811 814 816 818 820 821 823 825 826 828 829 830 831 832 834 835 837 838 839 840 842 844 845 846 847 848 849 850 851 852 853 854 855 856 856 857 858 858 858 859 859 859 859 859 860 860 860 861 861 861 861 861 861 860 860 860 860 859 859 859 858 857 856 856 855 854 853 852 852 851 850 849 848 848 847 846 845
790 792 794 796 799 802 804 807 811 813 815 817 819 820 822 824 825 827 828 829 830 831 833 834 835 836 837 838 840 842 843 844 845 846 847 848 849 851 852 852 853 854 854 855 856 856 857 858 858 858 858 858 859 859 859 860 860 860 860 860 860 859 859 859 858 858 858 858 857 857 856 855 855 854 853 852 851 850 850 849 848 847 846 846 845
791 793 795 797 799 801 804 807 810 812 814 816 817 819 821 822 823 825 826 827 829 830 831 832 833 834 835 836 837 838 840 841 842 844 845 846 847 849 850 851 851 852 853 853 854 855 855 856 856 857 857 857 857 857 858 858 859 859 859 859 858 858 858 857 857 857 857 857 856 856 855 855 854 853 853 852 851 850 849 848 848 847 846 845 844
791 794 796 797 799 801 804 806 809 811 812 814 816 818 819 821 822 823 825 826 827 829 830 831 832 833 834 835 836 837 838 839 841 842 843 844 846 847 848 849 850 850 851 852 852 853 854 854 854 855 855 855 855 856 856 857 857 857 857 857 857 857 856 856 856 855 855 855 855 855 854 854 853 853 852 851 850 849 849 848 847 846 846 845 844
789 793 796 798 799 801 803 805 807 810 812 814 815 816 818 819 821 822 823 824 826 827 828 830 831 832 833 834 835 836 837 838 840 841 842 843 844 845 846 847 848 849 849 850 851 851 852 852 853 853 853 853 853 854 854 854 855 855 855 855 855 855 855 854 854 854 853 853 853 853 853 853 852 851 851 850 849 849 848 847 846 846 845 844 843
789 791 795 798 799 800 802 804 807 809 811 813 814 816 817 819 820 821 822 823 825 826 827 829 830 831 832 833 834 835 836 837 839 839 840 841 842 843 844 846 846 847 848 849 849 850 850 850 851 851 851 851 852 852 852 852 852 853 853 853 853 853 852 852 852 852 852 851 851 851 851 851 850 850 849 849 848 848 847 846 845 844 844 843 842
788 791 794 797 799 801 802 804 806 808 810 812 814 815 817 818 819 820 821 823 824 825 826 827 828 830 831 832 833 834 835 836 837 838 839 840 841 842 843 844 845 846 846 847 847 848 848 849 849 849 849 850 850 850 850 850 850 850 850 850 850 850 850 850 850 850 849 849 849 849 849 849 848 848 848 847 847 846 845 844 844 843 842 842 841
787 789 791 795 799 802 803 804 806 808 810 812 813 814 815 817 818 819 820 822 823 824 825 826 827 828 829 830 831 832 832 834 835 836 837 838 839 840 841 842 843 843 844 845 845 846 846 847 847 847 847 847 847 847 847 847 847 847 847 847 847 847 847 847 847 847 847 847 846 846 846 846 846 846 845 845 844 844 843 843 842 841 841 840 839
785 788 789 791 795 798 801 803 805 807 809 811 812 813 814 815 816 818 820 821 822 823 824 825 826 827 828 829 829 830 831 832 833 834 835 836 837 838 839 840 841 841 842 843 843 844 844 845 845 844 845 845 845 845 845 844 844 844 844 844 844 844 844 845 845 845 844 844 844 844 844 843 843 843 843 842 842 841 841 840 840 839 838 838 837
785 788 790 791 793 796 798 801 803 806 808 809 811 812 813 814 815 817 819 820 821 822 823 824 825 826 827 828 828 829 830 831 831 832 834 834 835 836 837 838 838 839 840 840 841 841 842 842 842 842 842 842 842 842 842 841 841 841 841 841 841 841 841 841 841 841 841 841 841 841 840 840 840 840 839 839 839 839 838 837 837 836 836 835 834
784 787 790 792 794 795 797 799 802 805 806 808 809 811 812 813 815 816 817 819 820 821 821 823 824 825 826 826 827 828 829 829 830 831 832 833 833 834 835 835 836 837 837 838 839 839 839 839 839 839 839 839 839 839 839 838 838 838 838 838 838 838 838 838 838 838 838 838 837 837 837 837 836 836 836 836 836 835 835 834 833 833 832 832 831
785 787 790 792 794 795 797 799 802 803 805 807 808 810 811 813 814 815 816 817 818 819 820 821 822 823 824 825 826 827 827 828 829 830 831 831 832 832 833 833 834 834 835 835 836 836 836 837 836 836 836 836 836 836 835 835 835 835 835 835 834 834 834 835 835 834 834 834 834 834 833 833 832 832 832 832 831 831 831 830 829 829 828 828 827
787 789 790 792 794 796 798 799 801 803 804 806 808 810 811 812 813 815 816 816 817 818 819 820 821 822 823 824 824 825 826 826 827 828 829 830 830 831 831 831 831 831 832 833 833 833 834 834 833 833 833 833 833 833 832 832 832 832 831 831 831 831 831 831 831 831 831 831 830 830 829 829 828 828 827 827 827 826 826 825 825 824 824 824 823
789 791 792 794 795 797 798 800 801 803 805 807 809 810 811 812 812 814 815 815 816 817 818 819 819 820 821 822 823 824 824 825 826 827 827 828 828 828 829 829 829 829 830 830 830 830 830 830 830 830 830 830 830 829 829 829 829 828 828 828 828 827 827 827 827 827 827 827 826 826 825 825 824 824 823 822 822 821 821 820 820 820 819 819 818